| time (UTC) | temp F | wind direction | speed knots | gust knots | rain 1hr in | rain 24hr in | rain mn in | humidity % | barometer mb |
| 20260504231600 | 60 | 68 | 0.0 | 1.7 | 0.00 | 0.00 | 0.00 | 39 | 1009.6 |
| 20260504230116 | 60 | 24 | 0.0 | 2.6 | 0.00 | 0.00 | 0.00 | 39 | 1009.5 |
| 20260504224544 | 60 | 62 | 0.0 | 1.7 | 0.00 | 0.00 | 0.00 | 39 | 1009.6 |
| 20260504223056 | 60 | 73 | 4.3 | 7.8 | 0.00 | 0.00 | 0.00 | 39 | 1009.4 |
| 20260504221611 | 61 | 20 | 0.0 | 0.9 | 0.00 | 0.00 | 0.00 | 38 | 1009.6 |
| 20260504220041 | 60 | 328 | 0.0 | 2.6 | 0.00 | 0.00 | 0.00 | 40 | 1009.8 |
| 20260504214553 | 60 | 355 | 1.7 | 7.0 | 0.00 | 0.00 | 0.00 | 40 | 1009.9 |
| 20260504213107 | 61 | 15 | 0.9 | 5.2 | 0.00 | 0.00 | 0.00 | 39 | 1009.9 |
| 20260504211556 | 61 | 332 | 1.7 | 8.7 | 0.00 | 0.00 | 0.00 | 38 | 1010.3 |
| 20260504210047 | 61 | 300 | 5.2 | 9.6 | 0.00 | 0.00 | 0.00 | 38 | 1010.4 |
| 20260504204541 | 61 | 342 | 2.6 | 12.2 | 0.00 | 0.00 | 0.00 | 39 | 1010.2 |
| 20260504203052 | 62 | 52 | 0.9 | 4.3 | 0.00 | 0.00 | 0.00 | 39 | 1010.4 |
| 20260504201542 | 61 | 15 | 0.0 | 7.8 | 0.00 | 0.00 | 0.00 | 38 | 1010.5 |
| 20260504200056 | 62 | 43 | 1.7 | 5.2 | 0.00 | 0.00 | 0.00 | 37 | 1010.4 |
| 20260504194548 | 62 | 22 | 0.0 | 9.6 | 0.00 | 0.00 | 0.00 | 38 | 1010.4 |
| 20260504193059 | 63 | 350 | 7.0 | 14.8 | 0.00 | 0.00 | 0.00 | 37 | 1010.3 |
| 20260504191554 | 62 | 14 | 5.2 | 13.9 | 0.00 | 0.00 | 0.00 | 36 | 1010.2 |
| 20260504190046 | 64 | 360 | 7.8 | 15.6 | 0.00 | 0.00 | 0.00 | 35 | 1010.0 |
| 20260504184556 | 63 | 5 | 7.0 | 17.4 | 0.00 | 0.00 | 0.00 | 36 | 1010.0 |
| 20260504183041 | 63 | 26 | 6.1 | 18.2 | 0.00 | 0.00 | 0.00 | 35 | 1009.8 |
| 20260504181552 | 63 | 9 | 10.4 | 23.5 | 0.00 | 0.00 | 0.00 | 36 | 1010.0 |
| 20260504180103 | 65 | 360 | 11.3 | 23.5 | 0.00 | 0.00 | 0.00 | 33 | 1009.9 |
| 20260504174554 | 65 | 345 | 7.8 | 20.9 | 0.00 | 0.00 | 0.00 | 31 | 1009.9 |
| 20260504173041 | 65 | 331 | 3.5 | 13.0 | 0.00 | 0.00 | 0.00 | 28 | 1010.0 |
| 20260504171612 | 68 | 336 | 3.5 | 11.3 | 0.00 | 0.00 | 0.00 | 23 | 1009.6 |
| 20260504160110 | 64 | 257 | 2.6 | 0.0 | 0.00 | 0.00 | 0.00 | 25 | 1009.4 |
| 20260504081556 | 40 | 229 | 0.0 | 0.9 | 0.00 | 0.00 | 0.00 | 64 | 1011.1 |
| 20260504060117 | 46 | 260 | 0.9 | 2.6 | 0.00 | 0.00 | 0.00 | 53 | 1012.3 |
| 20260504044613 | 49 | 16 | 0.0 | 0.0 | 0.00 | 0.00 | 0.00 | 49 | 1012.6 |
| 20260504043045 | 49 | 16 | 0.0 | 0.0 | 0.00 | 0.00 | 0.00 | 48 | 1012.7 |
| 20260504041556 | 50 | 16 | 0.0 | 0.0 | 0.00 | 0.00 | 0.00 | 47 | 1012.7 |
| 20260504040051 | 51 | 16 | 0.0 | 0.9 | 0.00 | 0.00 | 0.00 | 47 | 1012.7 |
| 20260504034541 | 52 | 59 | 0.0 | 0.0 | 0.00 | 0.00 | 0.00 | 45 | 1012.7 |
| 20260504033054 | 52 | 59 | 0.0 | 0.0 | 0.00 | 0.00 | 0.00 | 44 | 1012.7 |
| 20260504031607 | 53 | 59 | 0.0 | 2.6 | 0.00 | 0.00 | 0.00 | 43 | 1012.5 |
| 20260504030118 | 54 | 61 | 0.0 | 1.7 | 0.00 | 0.00 | 0.00 | 42 | 1012.5 |
| 20260504024547 | 56 | 57 | 0.9 | 3.5 | 0.00 | 0.00 | 0.00 | 39 | 1012.3 |
| 20260504023056 | 57 | 41 | 0.0 | 3.5 | 0.00 | 0.00 | 0.00 | 37 | 1012.4 |
| 20260504021611 | 58 | 32 | 0.0 | 1.7 | 0.00 | 0.00 | 0.00 | 35 | 1012.4 |
| 20260504020100 | 59 | 26 | 0.0 | 3.5 | 0.00 | 0.00 | 0.00 | 34 | 1012.1 |
| 20260504014549 | 61 | 31 | 1.7 | 5.2 | 0.00 | 0.00 | 0.00 | 33 | 1011.9 |
| 20260504013045 | 63 | 340 | 4.3 | 16.5 | 0.00 | 0.00 | 0.00 | 29 | 1012.1 |
| 20260504011553 | 66 | 350 | 2.6 | 7.0 | 0.00 | 0.00 | 0.00 | 23 | 1011.7 |
| 20260504010104 | 65 | 347 | 0.9 | 3.5 | 0.00 | 0.00 | 0.00 | 24 | 1011.7 |
| 20260504004557 | 66 | 22 | 2.6 | 10.4 | 0.00 | 0.00 | 0.00 | 24 | 1011.7 |
| 20260504003049 | 68 | 19 | 3.5 | 15.6 | 0.00 | 0.00 | 0.00 | 22 | 1011.6 |